Regional Weather Roundup
Issued by NWS

Home | Current Version | Previous Version | Graphics & Text | Print | Product List | Glossary On
Versions: 1 2 3 4 5 6 7 8 9 10 11 12 13 14 15 16 17 18 19 20 21 22 23 24 25 26 27 28 29 30 31 32 33 34 35 36 37 38 39 40 41 42 43 44 45 46 47 48 49 50
000
ASUS43 KFSD 280510
RWRSD

WEATHER ROUNDUP FOR SOUTH DAKOTA
NATIONAL WEATHER SERVICE SIOUX FALLS SD
1200 AM CDT THU JUL 28 2016

NOTE: "FAIR" INDICATES FEW OR NO CLOUDS BELOW 12,000 FEET WITH NO
SIGNIFICANT WEATHER AND/OR OBSTRUCTIONS TO VISIBILITY.


SDZ001>005-009-010-012>017-280600-
NORTHWEST AND NORTH CENTRAL SOUTH DAKOTA

CITY           SKY/WX    TMP DP  RH WIND       PRES   REMARKS
BUFFALO          N/A     65  59  81 CALM      30.12S
FAITH            N/A     62  56  80 E5        30.15R
MOBRIDGE       MOCLDY    69  60  73 E9        30.10R
$$

SDZ012>016-024>037-041>051-057-063-072>074-280600-
SOUTHWEST AND SOUTH CENTRAL SOUTH DAKOTA

CITY           SKY/WX    TMP DP  RH WIND       PRES   REMARKS
RAPID CTY ARPT CLOUDY    62  57  83 SE3       30.15F
PIERRE         CLEAR     66  62  87 E3        30.08F
CUSTER         CLEAR     57  55  93 CALM      30.27F FOG
ELLSWORTH AFB  CLOUDY    65  61  88 CALM      30.15S
PHILIP         CLEAR     61  60  97 NW3       30.12S
PINE RIDGE     CLEAR     66  64  93 CALM      30.15F
WINNER         FAIR      64  60  87 W5        30.12R
$$

SDZ004>011-016>023-039-040-280600-
NORTHEAST SOUTH DAKOTA

CITY           SKY/WX    TMP DP  RH WIND       PRES   REMARKS
ABERDEEN       PTCLDY    65  59  81 N6        30.08S
WATERTOWN      CLOUDY    62  57  83 N7        30.08R
BROOKINGS      PTCLDY    62  59  90 N6          N/A
SISSETON         N/A     63  59  87 NW9       30.06R
$$

SDZ017-020-022-023-036>040-048>070-280600-
SOUTHEAST SOUTH DAKOTA

CITY           SKY/WX    TMP DP  RH WIND       PRES   REMARKS
SIOUX FALLS    CLOUDY    68  62  81 N6        30.04S
HURON          CLOUDY    68  61  78 NE7       30.06R
CHAMBERLAIN    CLOUDY    73  63  71 NE6       30.09S
MITCHELL       CLOUDY    70  63  78 NE3       30.06R
YANKTON        CLOUDY    72  63  73 E5        30.02S
$$

ABBREVIATIONS USED IN REMARKS
   TC - TEMPERATURE IN CELSIUS
  WCI - WIND CHILL INDEX
   HX - HEAT INDEX
  VSB - VISIBILITY





USA.gov is the U.S. government's official web portal to all federal, state and local government web resources and services.